Weather History for KGUS - November, 2012

Change the Weather History Date:

Thursday, November 22, 2012

  Actual Average Record
Temperature  
Mean Temperature 50 °F -  
Max Temperature 61 °F 45 °F 68 °F (2003)
Min Temperature 38 °F 31 °F 12 °F (2000)
Degree Days  
Heating Degree Days 16    
Moisture  
Dew Point 42 °F    
Average Humidity 86    
Maximum Humidity 100    
Minimum Humidity 51    
Precipitation  
Precipitation 0.01 in - - ()
Sea Level Pressure  
Sea Level Pressure 30.09 in    
Wind  
Wind Speed 9 mph (South)    
Max Wind Speed 21 mph    
Max Gust Speed 29 mph    
Visibility 6 miles    
Events Rain    
Averages and records for this station are not official NWS values.
T = Trace of Precipitation, MM = Missing Value Source: NWS Daily Summary

Daily Weather History Graph

Daily Weather History Graph

Search for Another Location

Airport or City:

Trip Planner

Search our weather history database for the weather conditions in past years. The results will help you decide how hot, cold, wet, or windy it might be!

Date:

Astronomy

Nov. 22, 2012 Rise Set
Actual Time 7:39 AM EST 5:21 PM EST
Civil Twilight 7:10 AM EST 5:51 PM EST
Nautical Twilight 6:36 AM EST 6:24 PM EST
Astronomical Twilight 6:03 AM EST 6:57 PM EST
Moon 2:08 PM EST (11/22) 1:57 AM EST (11/22)
Length of Visible Light 10h 41m
Length of Day
9h 41m
Waxing Gibbous, 71% of the Moon is Illuminated
Nov 22
Waxing Gibbous
Nov 28
Full
Dec 6
Last Quarter
Dec 13
New
Dec 20
First Quarter

Hourly Weather History & Observations

Time (EST) Temp. Windchill Dew Point Humidity Pressure Visibility Wind Dir Wind Speed Gust Speed Precip Events Conditions
12:21 AM 39.2 °F 34.2 °F 39.2 °F 100% 30.19 in 2.0 mi South 6.9 mph - N/A   Clear
12:34 AM 39.2 °F 34.2 °F 39.2 °F 100% 30.19 in 2.5 mi South 6.9 mph - N/A   Clear
12:46 AM 39.2 °F 34.2 °F 39.2 °F 100% 30.19 in 2.0 mi South 6.9 mph - N/A   Clear
12:55 AM 39.4 °F 34.5 °F 39.4 °F 100% 30.18 in 2.0 mi South 6.9 mph - N/A   Clear
1:02 AM 39.2 °F 35.9 °F 39.2 °F 100% 30.18 in 2.5 mi South 4.6 mph - N/A   Clear
1:07 AM 39.2 °F 35.9 °F 39.2 °F 100% 30.18 in 2.0 mi South 4.6 mph - N/A   Clear
1:15 AM 39.2 °F 37.0 °F 39.2 °F 100% 30.18 in 1.8 mi South 3.5 mph - N/A   Clear
1:35 AM 39.2 °F 35.9 °F 39.2 °F 100% 30.18 in 2.0 mi South 4.6 mph - N/A   Clear
1:42 AM 39.2 °F 35.0 °F 39.2 °F 100% 30.18 in 2.5 mi South 5.8 mph - N/A   Clear
1:55 AM 39.6 °F 34.0 °F 39.6 °F 100% 30.17 in 2.5 mi South 8.1 mph - N/A   Clear
1:57 AM 39.2 °F 33.6 °F 39.2 °F 100% 30.17 in 3.0 mi South 8.1 mph - N/A   Clear
2:07 AM 39.2 °F 33.6 °F 39.2 °F 100% 30.17 in 2.5 mi South 8.1 mph - N/A   Clear
2:44 AM 39.2 °F 34.2 °F 39.2 °F 100% 30.17 in 3.0 mi South 6.9 mph - N/A   Clear
2:55 AM 40.3 °F 34.9 °F 40.3 °F 100% 30.17 in 3.0 mi South 8.1 mph - N/A   Clear
3:02 AM 41.0 °F 36.4 °F 41.0 °F 100% 30.17 in 2.5 mi South 6.9 mph - N/A   Clear
3:31 AM 41.0 °F 38.0 °F 41.0 °F 100% 30.17 in 2.0 mi South 4.6 mph - N/A   Clear
3:44 AM 39.2 °F 35.0 °F 39.2 °F 100% 30.17 in 2.5 mi South 5.8 mph - N/A   Clear
3:55 AM 40.1 °F 36.1 °F 40.1 °F 100% 30.17 in 2.5 mi South 5.8 mph - N/A   Clear
3:58 AM 41.0 °F 37.1 °F 41.0 °F 100% 30.17 in 3.0 mi South 5.8 mph - N/A   Clear
4:21 AM 39.2 °F 34.2 °F 39.2 °F 100% 30.16 in 2.5 mi South 6.9 mph - N/A   Clear
4:25 AM 39.2 °F 34.2 °F 39.2 °F 100% 30.16 in 3.0 mi South 6.9 mph - N/A   Clear
4:45 AM 39.2 °F 35.0 °F 39.2 °F 100% 30.15 in 2.5 mi South 5.8 mph - N/A   Clear
4:55 AM 38.8 °F 33.8 °F 38.8 °F 100% 30.15 in 2.5 mi South 6.9 mph - N/A   Clear
5:41 AM 39.2 °F 34.2 °F 39.2 °F 100% 30.15 in 3.0 mi South 6.9 mph - N/A   Clear
5:55 AM 39.6 °F 34.0 °F 39.6 °F 100% 30.15 in 3.0 mi South 8.1 mph - N/A   Clear
6:55 AM 39.9 °F 34.5 °F 39.9 °F 100% 30.15 in 3.0 mi South 8.1 mph - N/A   Clear
7:31 AM 39.2 °F 33.6 °F 39.2 °F 100% 30.15 in 2.5 mi South 8.1 mph - N/A   Clear
7:40 AM 39.2 °F 33.0 °F 39.2 °F 100% 30.12 in 3.0 mi South 9.2 mph - N/A   Partly Cloudy
7:55 AM 41.0 °F 35.2 °F 40.8 °F 99% 30.15 in 5.0 mi South 9.2 mph - N/A   Clear
8:55 AM 45.0 °F 39.7 °F 44.1 °F 97% 30.14 in 6.0 mi South 10.4 mph - N/A   Partly Cloudy
9:55 AM 50.2 °F - 45.7 °F 85% 30.13 in 5.0 mi South 12.7 mph - N/A   Haze
10:51 AM 55.4 °F - 46.4 °F 72% 30.10 in 7.0 mi SSW 18.4 mph - N/A   Partly Cloudy
10:55 AM 54.9 °F - 46.8 °F 74% 30.12 in 7.0 mi SSW 17.3 mph - N/A   Partly Cloudy
11:55 AM 56.7 °F - 46.4 °F 69% 30.09 in 10.0 mi SSW 18.4 mph - N/A   Clear
12:55 PM 59.5 °F - 46.8 °F 63% 30.05 in 10.0 mi SSW 16.1 mph - N/A   Clear
1:55 PM 60.4 °F - 44.2 °F 55% 30.02 in 10.0 mi SSW 19.6 mph - N/A   Clear
2:55 PM 61.5 °F - 44.8 °F 54% 30.00 in 10.0 mi SSW 15.0 mph 25.3 mph N/A   Clear
3:55 PM 59.7 °F - 43.9 °F 56% 29.99 in 10.0 mi SSW 15.0 mph - N/A   Mostly Cloudy
4:55 PM 58.6 °F - 41.5 °F 53% 29.98 in 10.0 mi South 16.1 mph 25.3 mph N/A   Scattered Clouds
5:33 PM 59.0 °F - 41.0 °F 51% 29.96 in 10.0 mi South 16.1 mph - N/A Rain Light Rain
5:42 PM 57.2 °F - 41.0 °F 55% 29.96 in 10.0 mi South 16.1 mph - N/A   Scattered Clouds
5:55 PM 57.9 °F - 41.0 °F 53% 29.97 in 10.0 mi South 13.8 mph - 0.00 in   Mostly Cloudy
6:55 PM 57.0 °F - 40.3 °F 54% 29.95 in 10.0 mi South 17.3 mph 23.0 mph N/A   Scattered Clouds
7:55 PM 55.6 °F - 41.2 °F 58% 29.94 in 10.0 mi SSW 18.4 mph - N/A   Overcast
8:55 PM 55.4 °F - 41.2 °F 59% 29.92 in 10.0 mi SSW 19.6 mph - N/A   Mostly Cloudy
9:55 PM 55.2 °F - 42.4 °F 62% 29.93 in 10.0 mi SW 17.3 mph - N/A   Overcast
10:30 PM 55.4 °F - 42.8 °F 63% 29.91 in 10.0 mi SW 19.6 mph - N/A Rain Light Rain
10:55 PM 52.2 °F - 46.6 °F 81% 29.91 in 10.0 mi SW 17.3 mph - 0.01 in Rain Light Rain
10:56 PM 51.8 °F - 46.4 °F 82% 29.91 in 10.0 mi SW 18.4 mph 24.2 mph N/A   Overcast
11:22 PM 51.8 °F - 48.2 °F 88% 29.90 in 10.0 mi SW 20.7 mph 26.5 mph N/A Rain Light Rain
11:36 PM 51.8 °F - 48.2 °F 88% 29.89 in 10.0 mi SW 17.3 mph 28.8 mph N/A   Overcast
11:54 PM 51.8 °F - 48.2 °F 88% 29.89 in 10.0 mi SW 17.3 mph - N/A Rain Light Rain